Regional Weather Roundup
Issued by NWS Wakefield, VA

Home | Current Version | Previous Version | Text Only | Print | Product List | Glossary On
Versions: 1 2 3 4 5 6 7 8 9 10 11 12 13 14 15 16 17 18 19 20 21 22 23 24 25 26 27 28 29 30 31 32 33 34 35 36 37 38 39 40 41 42 43 44 45 46 47 48 49 50
000
ASUS41 KAKQ 252310
RWRAKQ

REGIONAL WEATHER ROUNDUP
NATIONAL WEATHER SERVICE WAKEFIELD VA
700 PM EDT FRI JUL 25 2014

Note: "fair" indicates few or no clouds below 12,000 feet with no
significant weather and/or obstructions to visibility. * = Denotes
station may not report precipitation (e.g., rain,snow,etc.),
thunder or fog.

VAZ042-051-052>054-056-260000-
NORTHERN VIRGINIA

CITY           SKY/WX    TMP DP  RH WIND       PRES   REMARKS
WASH NATIONAL  MOSUNNY   82  58  43 SE9       30.00S
DULLES         MOSUNNY   78  55  44 S6        30.01R
FORT BELVOIR   SUNNY     80  59  47 S5        30.01S
QUANTICO       MOSUNNY   80  58  46 S7        30.01S
FREDERICKSBRG* SUNNY     82  60  47 SE3       30.00F
STAFFORD*      SUNNY     80  60  51 S3        30.05S
WARRENTON      SUNNY     81  68  65 CALM      30.01R
CULPEPER*      SUNNY    N/A N/A N/A S3        30.01S
MANASSAS*      NOT AVBL
LEESBURG*      SUNNY     81  61  50 CALM      30.02R
WINCHESTER     SUNNY     81  54  39 S3        30.00S
$$

VAZ048-049-060>072-079>083-260000-
CENTRAL AND SOUTH CENTRAL VIRGINIA...AND NORTH CENTRAL NORTH CAROLINA

CITY           SKY/WX    TMP DP  RH WIND       PRES   REMARKS
RICHMOND       PTSUNNY   81  60  48 E6        30.02R
CHESTERFIELD*  PTCLDY   N/A N/A N/A S6        30.04R
HANOVER        SUNNY     81  57  43 MISG      30.03R
TAPPAHANNOCK*  MOSUNNY   82  54  37 CALM      30.03R
CHARLOTTSVILLE SUNNY     80  62  54 S7        30.01S
ORANGE*        SUNNY     81  61  50 SE3       30.03R
LOUISA*        SUNNY     81  63  54 CALM      30.01S
FARMVILLE*     MOSUNNY   82  61  47 S8        30.01S
SOUTH HILL*    MOSUNNY   81  66  61 CALM      30.09S
ROANOKE RAPIDS MOCLDY    82  64  54 CALM      30.03S
RALEIGH        MOSUNNY   80  66  62 S6        30.02S
$$

VAZ088>098-260000-
SOUTHEAST VIRGINIA

CITY           SKY/WX    TMP DP  RH WIND       PRES   REMARKS
NORFOLK        PTSUNNY   78  59  51 E6        30.03R
VIRGINIA BEACH MOSUNNY   76  58  53 SE10      30.03R
NORFOLK NAVAL  PTSUNNY   81  60  48 NE5       30.05R
WEST POINT*    PTSUNNY   82  57  42 SW5       30.04R
NEWPORT NEWS   SUNNY     81  62  52 E8        30.03R
LANGLEY AFB    SUNNY     80  60  51 SE3       30.03R
FORT EUSTIS    SUNNY     81  62  53 SW3       30.02R
WILLIAMSBURG*  SUNNY     84  63  48 CALM      30.04R
FRANKLIN*      MOSUNNY   79  66  65 CALM      30.03S
WAKEFIELD      MOSUNNY   83  64  52 CALM      30.03R
$$

VAZ020-022-025-037-045-260000-
WESTERN AND SOUTHWEST VIRGINIA

CITY           SKY/WX    TMP DP  RH WIND       PRES   REMARKS
STAUNTON*      SUNNY     78  61  54 S9        30.04S
HOT SPRINGS VA CLOUDY    68  58  69 S6        30.17R
LYNCHBURG      SUNNY     78  64  61 S8        30.05R
DANVILLE       MOSUNNY   82  65  56 CALM      30.03R
MARTINSVILLE   MOSUNNY   83  65  55 S5        30.05R
ROANOKE        PTSUNNY   80  64  58 SE9       30.05R
BLACKSBURG     SUNNY     79  68  69 SE9         N/A
DUBLIN*        PTSUNNY   81  63  54 CALM      30.07S
MARION*        MOSUNNY  N/A N/A N/A W6        30.13R
HILLSVILLE*    CLOUDY    73  63  71 CALM      30.11R
RICHLANDS*     CLEAR     76  61  59 NW3       30.12R
WISE*          MOSUNNY   73  59  60 N7        30.12S
ABINGDON*      SUNNY     80  60  49 N5        30.09R
$$

MDZ021>025-VAZ099-100-260000-
SOUTHERN MARYLAND AND THE DELMARVA PENINSULA

CITY           SKY/WX    TMP DP  RH WIND       PRES   REMARKS
PATUXENT RIVER MOSUNNY   77  59  53 SE6       30.01S
BAY BRIDGE APT   N/A     79  50  36 SE5       30.01S
LEONARDTOWN    SUNNY     79  54  41 W5        30.03R
DOVER          SUNNY     79  56  45 SW8       30.00R
GEORGETOWN     SUNNY     77  60  55 SE9       30.02R
EASTON         NOT AVBL
CAMBRIDGE      SUNNY     79  50  36 CALM      30.01R
SALISBURY      NOT AVBL
OCEAN CITY     MOSUNNY   75  64  68 SE5       30.02R
WALLOPS ISLAND SUNNY     78  57  48 SE8       30.02R
ACCOMACK*        N/A     77  54  44 CALM      30.03R
$$

NCZ012>017-030>032-260000-
EASTERN NORTH CAROLINA

CITY           SKY/WX    TMP DP  RH WIND       PRES   REMARKS
ELIZABETH CITY MOSUNNY   77  60  55 E7        30.04R
AHOSKIE*       MOSUNNY   77  69  75 CALM      30.04R
EDENTON*       PTSUNNY   78  66  67 E6        30.03R
CURRITUCK*     SUNNY     81  55  41 E3        30.05R
KILL DEVIL HLS MOSUNNY   77  61  57 NE3       30.04R
MANTEO         NOT AVBL
CAPE HATTERAS  PTSUNNY   80  68  66 E6        30.02S
GOLDSBORO      PTSUNNY   81  73  78 S3        29.99S
WASHINGTON     MOSUNNY   80  69  68 SE3       30.01S
GREENVILLE     PTSUNNY   81  70  69 S5        30.03R
NEW BERN       CLOUDY    81  71  71 S3        30.02S
WILMINGTON     CLOUDY    79  73  82 E7        29.99F
$$

VAZ048-260000-
ELSEWHERE

CITY           SKY/WX    TMP DP  RH WIND       PRES   REMARKS
HARRISBURG PA  MOSUNNY   80  55  42 CALM      29.99S
BALTIMORE      MOSUNNY   81  51  35 NW5       30.00R
ANNAPOLIS      SUNNY     78  57  48 SE8       30.00R
ANDREWS AFB    SUNNY     80  58  45 SW9       30.01R
WILMINGTON DE  SUNNY     79  57  46 VRB6      30.00S
PHILADELPHIA   MOSUNNY   82  54  37 SW10      29.99R
WILDWOOD NJ*   SUNNY     77  57  50 S7        30.02R
ATLANTIC CITY  SUNNY     75  64  68 SE9       30.01R
HENDERSON NC   CLOUDY    79  64  59 CALM      30.04S
GREENSBORO     MOSUNNY   80  67  64 S9        30.02S
ROCKY MOUNT    CLOUDY    81  69  67 CALM      30.02R
FAYETTEVILLE   CLOUDY    80  71  74 E5        30.00S
CHARLOTTE      MOSUNNY   82  66  58 SE9       30.01S
$$

VAZ100-260000-
MARINE

STATION/POSITION TIME  TEMP    WIND        PRES    WAVE   SWELL
                       AIR SEA DIR/SP/G            HT/PER HT/PER
                 (UTC) (F)     (DEG/KT/KT) (MB)    (FT/S) (FT/S)
44066 TX TWR #4  2300   74 76  200/  4/  4 1015.7R   2/ 8   2/ 8
CAPE MAY NJ      2300   74 80  150/  6/  9 1015.8F
LEWES DE         2300   76 76  150/  7/  9 1016.1R
15NM E FENWICK I 2300   75 77              1016.5R   2/ 5
OCEAN-CITY-INLET 2300   75 71  160/  5/  7 1016.2R
WACHAPREAGUE VA  2300   81 83  290/  2/  5 1016.7S
THOMAS POINT MD  2300   78 80  140/  7/  8 1016.6R
GOOSES REEF MD   2300   79     130/  2/  4 1016.6R
COVE POINT MD    2300   77     170/  4/  5 1016.0R
SOLOMONS ISLAND  2300      82                N/A
BISHOPS HEAD MD  2300   79 81  210/  3/  3 1015.9S
PINEY POINT MD   2300          330/  7/  8   N/A
POTOMAC MD       2300   78     100/  4/  6 1015.7R
CAMBRIDGE MD     2300   79 80   20/  3/  4 1015.8R
LEWISETTA VA     2300   80 80  360/  5/  7 1016.1S
RAPPAHANNOCK LGT 2300          100/  1/  2 1017.5R
STINGRAY PT      2300   78     140/  4/  6 1017.6R
YORK RVR RNG VA  2300   77     130/  6/  7 1016.5R
YORKTOWN VA      2300   78 81  110/  6/  8 1016.7R
JAMESTOWN VA     2300   80     330/  4/  6   N/A
DOMINION TERM VA 2300   79      90/  5/  5 1017.0R
KIPTOPEKE VA     2300      83  220/  5/  6   N/A
CHES BAY BRIDGE  2300   78 79   50/  5/  5 1016.6R
CAPE HENRY VA    2300   77     100/  5/  7 1015.9R
WILLOUBY STN VA  2300          100/  6/  6 1016.4R
S CRANEY ISL VA  2300          360/  3/  4 1016.9S
CAPE HENRY BUOY  2300      78                N/A     2/ 6
1ST LANDING BUOY 2300   78      80/  6/  6 1016.7R
CAPE CHARLES BUO 2300      77                N/A     2/ 8
OFFSHORE WE BUOY 2300      79                N/A     2/ 7
64NM E OF VA BCH 2300   76 78  330/  4/  6 1016.8R   2/ 7   2/ 7
DUCK PIER NC     2300   76 77   30/  8/  9 1016.4S
44056 DUCK FRF   2300                        N/A     2/ 5
OREGON INLET NC  2300   77 79   50/  6/  8 1017.0R
HATTERAS NC      2300   79 81  110/  5/  6 1016.9F
DIAMOND SHLS NC  2300          VRB  6/  8  1016.2S   3/ 7   3/ 7
CAPE LOOKOUT NC  2200   78      70/  6/  7 1016.1S
$$


USA.gov is the U.S. government's official web portal to all federal, state and local government web resources and services.